Regional Weather Roundup
Issued by NWS

Home | Current Version | Previous Version | Text Only | Print | Product List | Glossary Off
Versions: 1 2 3 4 5 6 7 8 9 10 11 12 13 14 15 16 17 18 19 20 21 22 23 24 25 26 27 28 29 30 31 32 33 34 35 36 37 38 39 40 41 42 43 44 45 46 47 48 49 50

000
ASUS45 KABQ 250001
RWRNM
WEATHER ROUNDUP FOR NEW MEXICO
NATIONAL WEATHER SERVICE ALBUQUERQUE NM
600 PM MDT FRI APR 24 2015

NOTE: "FAIR" MEANS FEW OR NO CLOUDS BELOW 12,000 FEET AGL WITH NO
       SIGNIFICANT WEATHER OR OBSTRUCTIONS TO VISION.

      THIS PRODUCT IS RELEASED AS TWO VERSIONS.  ONE VERSION NEAR
      THE TOP OF THE HOUR CONTAINING PRELIMINARY DATA FROM ALBUQUERQUE
      AND OTHER STATIONS.  A FINAL VERSION WITH ADDITIONAL DATA IS
      ISSUED ABOUT 10 MINUTES AFTER THE HOUR.

NMZ501-503-504-510>518-250100-
NORTHWEST PLATEAU/NORTHCENTRAL MOUNTAINS

CITY           SKY/WX    TMP DP  RH WIND       PRES   REMARKS
FARMINGTON     CLOUDY    55  30  38 VRB7      29.82R
6HR MIN TEMP:  52; 6HR MAX TEMP:  66; 6HR PCP:  0.01;

SANTA FE       PTSUNNY   56  19  23 W18G30    29.85S
6HR MIN TEMP:  51; 6HR MAX TEMP:  60;

TAOS           CLOUDY    46  27  46 W26G35    29.85R
ANGEL FIRE     CLOUDY    44  23  44 SW22G32   29.86R

$$
NMZ402-403-502-505>509-250100-
WESTCENTRAL MOUNTAINS/SOUTHWEST MOUNTAINS

CITY           SKY/WX    TMP DP  RH WIND       PRES   REMARKS
GALLUP         MOSUNNY   57  30  35 W23G33    29.91R
6HR MIN TEMP:  41; 6HR MAX TEMP:  58; 6HR PCP:  0.04;

GRANTS         MOSUNNY   57  25  29 W12G25    29.92S
SILVER CITY      N/A     63  28  27 W21G28    29.98S

$$
NMZ407-409-411-412-250100-
SOUTHERN DESERTS

CITY           SKY/WX    TMP DP  RH WIND       PRES   REMARKS
DEMING         MOSUNNY   69  27  20 W24G33    29.91S
6HR MIN TEMP:  64; 6HR MAX TEMP:  71;

ALAMOGORDO     MOSUNNY   72  23  16 SW20G35   29.87R
T OR C         SUNNY     68  24  19 W14G25    29.86R
6HR MIN TEMP:  60; 6HR MAX TEMP:  71;


$$
NMZ519>523-250100-
CENTRAL VALLEYS/CENTRAL HIGHLANDS

CITY           SKY/WX    TMP DP  RH WIND       PRES   REMARKS
ALBUQUERQUE    PTSUNNY   55  38  52 SE7       29.87F
6HR MIN TEMP:  46; 6HR MAX TEMP:  60; 6HR PCP:  0.08;

DOUBLE EAGLE   PTSUNNY   59  25  27 W14G25      N/A
MORIARTY ARPT  FAIR      55  27  34 W13       29.90F
6HR MIN TEMP:  41; 6HR MAX TEMP:  58;

CLINES CORNERS CLOUDY    47  26  44 NW22G33   29.88R
6HR MIN TEMP:  41; 6HR MAX TEMP:  55; 6HR PCP: TRACE;

BELEN          MOCLDY    60  33  37 E6        29.86F
6HR MIN TEMP:  45; 6HR MAX TEMP:  61; 6HR PCP:  0.02;

SOCORRO        NOT AVBL

$$
NMZ524>526-539-540-250100-
SOUTHCENTRAL MOUNTAINS

CITY           SKY/WX    TMP DP  RH WIND       PRES   REMARKS
RUIDOSO        NOT AVBL

$$
NMZ527>531-250100-
NORTHEAST HIGHLANDS/NORTHEAST PLAINS

CITY           SKY/WX    TMP DP  RH WIND       PRES   REMARKS
LAS VEGAS      PTSUNNY   56  16  20 W24G36    29.80R
6HR MIN TEMP:  49; 6HR MAX TEMP:  60;

RATON          PTSUNNY   60  20  21 W26G35    29.70R
6HR MIN TEMP:  48; 6HR MAX TEMP:  65; 6HR PCP: TRACE;

CLAYTON        PTSUNNY   67  29  24 NW9       29.60R
6HR MIN TEMP:  59; 6HR MAX TEMP:  71; 6HR PCP: TRACE;


$$
NMZ532>537-250100-
EASTCENTRAL PLAINS

CITY           SKY/WX    TMP DP  RH WIND       PRES   REMARKS
TUCUMCARI      SUNNY     71  22  15 W31G43    29.64S
6HR MIN TEMP:  63; 6HR MAX TEMP:  75; 6HR PCP: TRACE;

CANNON AFB     NOT AVBL
CLOVIS AIRPORT SUNNY     68  27  21 W33G44    29.72S

$$
NMZ028-029-538-250100-
SOUTHEAST PLAINS

CITY           SKY/WX    TMP DP  RH WIND       PRES   REMARKS
ROSWELL        SUNNY     74  24  15 W23G30    29.77S
6HR MIN TEMP:  71; 6HR MAX TEMP:  77;

ARTESIA        SUNNY     75  25  15 SW26G36   29.80S
CARLSBAD       SUNNY     76  21  12 W24G31    29.80S
6HR MIN TEMP:  75; 6HR MAX TEMP:  80;

HOBBS          MOSUNNY   73  27  17 SW21G36   29.81R


$$



USA.gov is the U.S. government's official web portal to all federal, state and local government web resources and services.